TimeEST,TemperatureF,Dew PointF,Humidity,Sea Level PressureIn,VisibilityMPH,Wind Direction,Wind SpeedMPH,Gust SpeedMPH,PrecipitationIn,Events,Conditions,WindDirDegrees,DateUTC
12:15 AM,28.4,24.8,86,29.49,7.0,West,25.3,36.8,N/A,Snow,Light Snow,270,2013-01-31 05:15:00
12:35 AM,26.6,23.0,86,29.51,7.0,West,25.3,33.4,N/A,Snow,Light Snow,270,2013-01-31 05:35:00
12:55 AM,26.6,21.2,80,29.53,7.0,West,21.9,33.4,N/A,Snow,Light Snow,270,2013-01-31 05:55:00
1:15 AM,26.6,19.4,74,29.54,7.0,West,24.2,32.2,N/A,Snow,Light Snow,270,2013-01-31 06:15:00
1:35 AM,26.6,21.2,80,29.55,7.0,West,23.0,26.5,N/A,Snow,Light Snow,280,2013-01-31 06:35:00
1:55 AM,24.8,19.4,80,29.56,5.0,West,23.0,33.4,N/A,Snow,Light Snow,270,2013-01-31 06:55:00
2:15 AM,24.8,19.4,80,29.57,10.0,West,18.4,26.5,N/A,Snow,Light Snow,270,2013-01-31 07:15:00
2:35 AM,24.8,19.4,80,29.59,7.0,West,19.6,29.9,N/A,Snow,Light Snow,260,2013-01-31 07:35:00
2:55 AM,23.0,17.6,80,29.60,10.0,West,26.5,32.2,N/A,,Overcast,270,2013-01-31 07:55:00
3:15 AM,23.0,17.6,80,29.61,7.0,West,19.6,31.1,N/A,Snow,Light Snow,270,2013-01-31 08:15:00
3:35 AM,23.0,15.8,74,29.62,10.0,West,26.5,32.2,N/A,Snow,Light Snow,270,2013-01-31 08:35:00
3:55 AM,23.0,15.8,74,29.63,10.0,West,25.3,32.2,N/A,,Overcast,280,2013-01-31 08:55:00
4:15 AM,23.0,17.6,80,29.63,7.0,West,18.4,24.2,N/A,Snow,Light Snow,260,2013-01-31 09:15:00
4:35 AM,21.2,17.6,86,29.64,3.0,West,19.6,25.3,N/A,Snow,Light Snow,260,2013-01-31 09:35:00
4:55 AM,21.2,15.8,80,29.65,7.0,West,25.3,31.1,N/A,Snow,Light Snow,260,2013-01-31 09:55:00
5:15 AM,21.2,15.8,80,29.65,7.0,West,20.7,26.5,N/A,Snow,Light Snow,260,2013-01-31 10:15:00
5:35 AM,21.2,14.0,74,29.67,10.0,West,21.9,33.4,N/A,,Overcast,260,2013-01-31 10:35:00
5:55 AM,21.2,14.0,74,29.68,7.0,West,23.0,31.1,N/A,Snow,Light Snow,260,2013-01-31 10:55:00
6:15 AM,19.4,14.0,80,29.68,10.0,West,25.3,31.1,N/A,Snow,Light Snow,260,2013-01-31 11:15:00
6:35 AM,19.4,12.2,74,29.68,10.0,West,23.0,31.1,N/A,Snow,Light Snow,260,2013-01-31 11:35:00
6:55 AM,19.4,12.2,74,29.70,10.0,West,19.6,29.9,N/A,Snow,Light Snow,270,2013-01-31 11:55:00
7:15 AM,19.4,12.2,74,29.71,4.0,West,18.4,27.6,N/A,Snow,Light Snow,270,2013-01-31 12:15:00
7:55 AM,19.4,10.4,68,29.72,10.0,West,19.6,27.6,N/A,,Overcast,260,2013-01-31 12:55:00
8:15 AM,19.4,12.2,74,29.73,5.0,West,21.9,29.9,N/A,Snow,Light Snow,270,2013-01-31 13:15:00
8:35 AM,17.6,12.2,79,29.75,5.0,West,19.6,27.6,N/A,Snow,Light Snow,260,2013-01-31 13:35:00
8:55 AM,17.6,12.2,79,29.76,7.0,West,18.4,26.5,N/A,Snow,Light Snow,270,2013-01-31 13:55:00
9:15 AM,19.4,10.4,68,29.77,10.0,West,20.7,29.9,N/A,Snow,Light Snow,270,2013-01-31 14:15:00
9:35 AM,19.4,12.2,74,29.78,10.0,West,16.1,27.6,N/A,,Overcast,260,2013-01-31 14:35:00
9:55 AM,19.4,14.0,80,29.78,4.0,West,18.4,21.9,N/A,Snow,Light Snow,260,2013-01-31 14:55:00
10:15 AM,19.4,14.0,80,29.79,2.0,West,15.0,25.3,N/A,Snow,Light Snow,260,2013-01-31 15:15:00
10:35 AM,19.4,15.8,86,29.79,1.2,WSW,12.7,-,N/A,Snow,Light Snow,250,2013-01-31 15:35:00
10:55 AM,19.4,15.8,86,29.80,3.0,West,11.5,20.7,N/A,Snow,Light Snow,260,2013-01-31 15:55:00
11:15 AM,21.2,15.8,80,29.80,4.0,West,12.7,20.7,N/A,Snow,Light Snow,260,2013-01-31 16:15:00
11:35 AM,23.0,15.8,74,29.81,10.0,West,17.3,23.0,N/A,Snow,Light Snow,260,2013-01-31 16:35:00
11:55 AM,21.2,14.0,74,29.81,10.0,West,15.0,-,N/A,,Overcast,260,2013-01-31 16:55:00
12:15 PM,21.2,14.0,74,29.81,10.0,West,18.4,21.9,N/A,,Overcast,270,2013-01-31 17:15:00
12:35 PM,21.2,14.0,74,29.81,10.0,West,19.6,25.3,N/A,Snow,Light Snow,260,2013-01-31 17:35:00
12:55 PM,21.2,17.6,86,29.81,0.8,West,13.8,23.0,N/A,Snow,Light Snow,260,2013-01-31 17:55:00
1:15 PM,21.2,17.6,86,29.81,1.0,West,20.7,25.3,N/A,Snow,Light Snow,260,2013-01-31 18:15:00
1:35 PM,21.2,12.2,68,29.82,10.0,West,26.5,29.9,N/A,Snow,Light Snow,280,2013-01-31 18:35:00
1:55 PM,21.2,12.2,68,29.82,10.0,West,18.4,32.2,N/A,,Overcast,260,2013-01-31 18:55:00
2:15 PM,21.2,10.4,63,29.83,10.0,West,18.4,29.9,N/A,,Overcast,270,2013-01-31 19:15:00
2:35 PM,21.2,10.4,63,29.83,10.0,West,19.6,26.5,N/A,,Overcast,280,2013-01-31 19:35:00
2:55 PM,21.2,10.4,63,29.84,10.0,West,20.7,25.3,N/A,,Overcast,270,2013-01-31 19:55:00
3:15 PM,19.4,10.4,68,29.85,10.0,West,23.0,28.8,N/A,,Overcast,270,2013-01-31 20:15:00
3:35 PM,21.2,8.6,58,29.85,10.0,West,24.2,29.9,N/A,,Overcast,260,2013-01-31 20:35:00
3:55 PM,19.4,10.4,68,29.85,10.0,West,18.4,25.3,N/A,,Overcast,270,2013-01-31 20:55:00
4:15 PM,19.4,10.4,68,29.86,5.0,WNW,17.3,24.2,N/A,Snow,Light Snow,290,2013-01-31 21:15:00
4:35 PM,17.6,12.2,79,29.86,2.5,West,17.3,23.0,N/A,Snow,Light Snow,270,2013-01-31 21:35:00
4:55 PM,17.6,12.2,79,29.87,3.0,West,18.4,24.2,N/A,Snow,Light Snow,280,2013-01-31 21:55:00
5:15 PM,17.6,12.2,79,29.88,0.8,West,18.4,24.2,N/A,Snow,Light Snow,280,2013-01-31 22:15:00
5:35 PM,17.6,10.4,73,29.88,3.0,WNW,16.1,23.0,N/A,Snow,Light Snow,290,2013-01-31 22:35:00
5:55 PM,17.6,8.6,68,29.88,7.0,West,16.1,27.6,N/A,,Overcast,280,2013-01-31 22:55:00
6:15 PM,17.6,6.8,63,29.89,10.0,West,17.3,27.6,N/A,,Overcast,280,2013-01-31 23:15:00
6:35 PM,17.6,6.8,63,29.90,10.0,West,17.3,23.0,N/A,,Overcast,270,2013-01-31 23:35:00
6:55 PM,15.8,8.6,73,29.92,10.0,West,13.8,-,N/A,,Overcast,270,2013-01-31 23:55:00
7:15 PM,15.8,8.6,73,29.93,10.0,West,17.3,23.0,N/A,,Overcast,260,2013-02-01 00:15:00
7:35 PM,15.8,8.6,73,29.93,5.0,West,18.4,23.0,N/A,Snow,Light Snow,280,2013-02-01 00:35:00
7:55 PM,15.8,6.8,68,29.94,10.0,West,16.1,23.0,N/A,,Overcast,260,2013-02-01 00:55:00
8:15 PM,14.0,8.6,79,29.95,7.0,West,20.7,25.3,N/A,Snow,Light Snow,280,2013-02-01 01:15:00
8:35 PM,14.0,8.6,79,29.96,5.0,West,16.1,23.0,N/A,Snow,Light Snow,270,2013-02-01 01:35:00
8:55 PM,14.0,8.6,79,29.96,10.0,West,19.6,25.3,N/A,,Overcast,280,2013-02-01 01:55:00
9:15 PM,14.0,8.6,79,29.96,10.0,West,17.3,-,N/A,,Overcast,270,2013-02-01 02:15:00
9:35 PM,14.0,8.6,79,29.97,5.0,West,12.7,-,N/A,Snow,Light Snow,270,2013-02-01 02:35:00
9:55 PM,12.2,5.0,73,29.98,10.0,WNW,21.9,25.3,N/A,,Overcast,290,2013-02-01 02:55:00
10:15 PM,12.2,5.0,73,29.99,7.0,West,19.6,26.5,N/A,,Overcast,280,2013-02-01 03:15:00
10:35 PM,12.2,3.2,67,29.99,10.0,West,19.6,27.6,N/A,,Overcast,280,2013-02-01 03:35:00
10:55 PM,12.2,3.2,67,30.00,10.0,West,23.0,27.6,N/A,,Overcast,270,2013-02-01 03:55:00
11:15 PM,10.4,3.2,73,30.01,10.0,West,17.3,26.5,N/A,Snow,Light Snow,270,2013-02-01 04:15:00
11:35 PM,10.4,3.2,73,30.02,10.0,West,17.3,27.6,N/A,,Overcast,280,2013-02-01 04:35:00
11:55 PM,10.4,3.2,73,30.03,10.0,West,20.7,28.8,N/A,,Mostly Cloudy,270,2013-02-01 04:55:00